Content
SEND FEEDBACK

Daily
Averages
Monthly
Summary
Mexico

ZACATECAS, ZACATECAS


Home > North America > Mexico > Zacatecas
Elevation: 7717 feet     Latitude: 22 45N     Longitude: 102 34W

WEATHER
 
SELECT A DAY
Number of Records: 147,446;   Date Range: 1/1/95 - 9/21/14
 
SHARE

PRINT THIS DATA

[ ← Previous Day ]
WEATHER ALMANAC - FEBRUARY 13, 2013
[ Next Day → ]
[ °C ]   °F
Weather ElementAverageHighLow
Temperature57.6 °F73.4 °F (1:42 pm)42.8 °F (11:48 pm)
Dewpoint27.5 °F32 °F (9:42 am)19.4 °F (10:42 pm)
Humidity33.4 %50 % (7:41 am)19 % (2:46 pm)
Barometer30.14 in30.20 in (10:42 am)30.06 in (3:47 pm)
Wind Speed16.7 mph34.5 mph (1:42 pm)
Wind Gust46 mph (1:42 pm)
Weather ElementAverage
Visibility10 mi
Wind DirectionSW (222.7 °)

Weather ElementTotal
Precipitation---
Heating Degree Days6.9 (Base 65)
Growing Degree Days8.1 (Base 50)
Averaged from 22 records on February 13, 2013
WEATHER CONDITIONS BREAKOUT
WIND DIRECTION BREAKOUT
WEATHER BY HOUR - FEBRUARY 13, 2013
[ °C ]   °F
Local TimeTemperatureDewpointHumidityBarometerVisibilityWind DirectionWind SpeedGust SpeedPrecipitationEventsConditions
1:41 AM51.8 °F26.6 °F38 %30.19 in10.0 miSouth (180°)10.4 mphClear
2:42 AM50.0 °F26.6 °F40 %30.18 in10.0 miSSW (200°)8.1 mphClear
3:41 AM48.2 °F28.4 °F46 %30.16 in10.0 miSSW (200°)9.2 mphClear
4:41 AM48.2 °F28.4 °F46 %30.13 in10.0 miSouth (190°)8.1 mphClear
5:45 AM46.4 °F26.6 °F46 %30.13 in10.0 miSouth (180°)10.4 mphClear
6:46 AM48.2 °F28.4 °F46 %30.14 in10.0 miSSW (200°)11.5 mphClear
7:41 AM46.4 °F28.4 °F50 %30.15 in10.0 miSouth (190°)11.5 mphClear
8:42 AM51.8 °F26.6 °F38 %30.18 in10.0 miSSW (210°)8.1 mphClear
9:42 AM60.8 °F32.0 °F34 %30.19 in10.0 miWSW (240°)17.3 mphClear
10:42 AM64.4 °F32.0 °F30 %30.20 in10.0 miWSW (250°)16.1 mphClear
11:45 AM68.0 °F32.0 °F26 %30.17 in10.0 miWSW (250°)31.1 mphPartly Cloudy
12:42 PM71.6 °F30.2 °F22 %30.15 in10.0 miWSW (250°)28.8 mph40.3 mphClear
1:42 PM73.4 °F30.2 °F20 %30.10 in10.0 miWSW (250°)34.5 mph46.0 mphClear
2:46 PM73.4 °F28.4 °F19 %30.08 in10.0 miWSW (240°)23.0 mph40.3 mphPartly Cloudy
3:47 PM71.6 °F28.4 °F20 %30.06 in10.0 miWest (260°)28.8 mph40.3 mphClear
4:44 PM71.6 °F28.4 °F20 %30.06 in10.0 miWSW (250°)26.5 mphClear
5:43 PM68.0 °F26.6 °F21 %30.06 in10.0 miWSW (240°)28.8 mph40.3 mphClear
7:43 PM59.0 °F26.6 °F29 %30.12 in10.0 miWSW (250°)11.5 mph23.0 mphClear
8:42 PM55.4 °F26.6 °F33 %30.14 in10.0 miSW (220°)13.8 mphClear
9:50 PM51.8 °F24.8 °F35 %30.16 in10.0 miSSW (200°)9.2 mphClear
10:42 PM44.6 °F19.4 °F37 %30.17 in10.0 miSSW (210°)10.4 mphClear
11:48 PM42.8 °F19.4 °F39 %30.18 in10.0 miWSW (240°)9.2 mphClear
Hourly data recorded from MMZC, located miles away from Zacatecas, Zacatecas







STORIES FROM OUR PARTNERS